Flag for U.S.A. Weather past 2 weeks in Scottsdale, Arizona, U.S.A.

Now
109 °F

Sunny.


Feels Like: 104 °F
Forecast: 86 / 106 °F
Wind: 10 mph from Southwest

Location: Scottsdale Airport

Current Time: Jul 22, 2014 at 6:45:02 PM

Latest Report: Jul 22, 2014 at 5:53 PM


Visibility: 10 mi

Pressure: 29.75 "Hg

Humidity: 12%

Dew point: 45 °F

Location of ScottsdaleLocation

Historic Weather in Scottsdale — Graph

°F

Scottsdale temperature yesterday

Maximum temperature yesterday: 104 °F (at 3:53 PM)
Minimum temperature yesterday: 81 °F (at 4:53 AM)
Average temperature yesterday: 94 °F

Past Weeks' High & Low Weather Summary

 TemperatureHumidityPressure
High110 °F (Jul 22, 4:53 PM)76% (Jul 15, 3:53 PM)29.96 "Hg (Jul 15, 3:53 PM)
Low79 °F (Jul 8, 11:53 PM)10% (Jul 17, 2:53 PM)29.68 "Hg (Jul 7, 5:53 PM)
Average92 °F31%29.82 "Hg
* Reported Jul 7 5:53 PM — Jul 22 5:53 PM, Scottsdale, Weather by CustomWeather, © 2014

Note: Actual official high and low records may vary slightly from our data, if they occured in-between our weather recording intervals... More about our weather records

Advertising

Scottsdale weather history for previous 24 hours

 ConditionsComfort  
Time TempWeatherWind HumidityBarometerVisibility
5:53 PM
Jul 22
109 °FSunny.10 mph12%29.75 "Hg10 mi
4:53 PM110 °FSunny.8 mph11%29.76 "Hg10 mi
9:53 AM94 °FSunny.3 mph21%29.90 "Hg10 mi
8:53 AM90 °FSunny.3 mph25%29.90 "Hg10 mi
7:53 AM89 °FSunny.No wind25%29.90 "Hg10 mi
6:53 AM87 °FSunny.No wind28%29.88 "Hg10 mi
5:53 AM83 °FSunny.No wind34%29.87 "Hg10 mi
4:53 AM83 °FClear.No wind34%29.85 "Hg10 mi
3:53 AM85 °FClear.No wind31%29.84 "Hg10 mi
2:53 AM86 °FClear.No wind29%29.83 "Hg10 mi
1:53 AM89 °FClear.No wind26%29.83 "Hg10 mi
12:53 AM91 °FClear.6 mph23%29.84 "Hg10 mi
11:53 PM
Jul 21
92 °FClear.5 mph23%29.84 "Hg10 mi
10:53 PM94 °FClear.3 mph21%29.85 "Hg10 mi
9:53 PM95 °FClear.No wind20%29.85 "Hg10 mi
8:53 PM98 °FClear.No wind17%29.83 "Hg10 mi
7:53 PM100 °FClear.6 mph15%29.81 "Hg10 mi
6:53 PM102 °FSunny.9 mph13%29.81 "Hg10 mi
Weather by CustomWeather, © 2014

See weather overviewHow to use our weather pages